Back to catalog

STARLINK-32469

AliveCommunicationsVLEO
NORAD 61721·PAYLOAD·🇺🇸 United States

Launched Oct 30, 2024 from Cape Canaveral Space Force Station

Loading…

Next Passes (next 24 hours)

TLE

FreshSource: CelesTrak SupGP

Epoch: Sep 14, 2026, 21:11 UTC

1 61721C 24196Q   26257.88312500  .00011141  00000+0  32932-3 0  2574
2 61721  53.1564 300.2807 0001128  87.6395 323.4454 15.34369715    13

Track STARLINK-32469 in real time with AllMySat

Download on the App Store